STARLINK-31556 (59544 NORAD) Tracking and Keplerian Element Data

This shows tracking and keplerian element data for the satellite.

Feedback or suggestion? Click here.




ElementValue
Catalog59544
NameSTARLINK-31556
Epoch Orbit780
Epoch Day159.89605226
Epoch Year2024
RAAN28.1142
Inclination43.0016
Eccentricity0.0002183
Argument of Perigee294.1872
Mean Anonmoly65.8757
Mean Motion15.4070814
Decay Rate1.296E-05
L11 59544U 24074L 24159.89605226 .00001296 00000+0 38272-4 0 9996
L22 59544 43.0016 28.1142 0002183 294.1872 65.8757 15.40708140 7801



Live tracking and technical data element details for STARLINK-31556 (NORAD 59544). STARLINK-31556 can be tracked NOW for your location showing map with azimuth and elevation plus other details from your city location.







IsCatalogInMostPopularTable: catalog: 59544, numindb: 12
Update: records affected: 1



GetName: 59544 STARLINK-31556

Hit Count: updated at: Fri, 14 Jun 2024 17:47:06 GMT